Content
SEND FEEDBACK

Daily
Averages
Monthly
Summary
United States of America

ARMSTRONG, TEXAS


Home > North America > United States > Texas
Elevation: 10 meters     Latitude: 26 56N     Longitude: 097 47W

WEATHER
 
SELECT A DAY
Number of Records: 279,061;   Date Range: 1/24/03 - 9/29/14
 
SHARE

PRINT THIS DATA

[ ← Previous Day ]
WEATHER ALMANAC - 13 FEBRUARY, 2013
[ Next Day → ]
[ °F ]   °C
Weather ElementAverageHighLow
Temperature17 °C21.1 °C (3:35 pm)11.3 °C (11:35 pm)
Dewpoint4.4 °C13.4 °C (1:35 am)-0.7 °C (5:55 pm)
Humidity46.1 %74 % (1:15 am)24 % (4:15 pm)
Barometer1018.3 hPa1022 hPa (10:15 am)1015.2 hPa (1:15 am)
Wind Speed11.3 km/h22.2 km/h (4:15 am)
Wind Gust33.3 km/h (9:15 am)
Weather ElementAverage
Visibility16.1 km
Wind DirectionS (184.8 °)

Weather ElementTotal
Precipitation---
Heating Degree Days2.2 (Base 18.3)
Growing Degree Days6.2 (Base 10)
Averaged from 66 records on 13 February, 2013
WEATHER CONDITIONS BREAKOUT
WIND DIRECTION BREAKOUT
WEATHER BY HOUR - 13 FEBRUARY, 2013
[ °F ]   °C
Local TimeTemperatureDewpointHumidityBarometerVisibilityWind DirectionWind SpeedGust SpeedPrecipitationEventsConditions
12:35 AM18 °C13.1 °C73 %1015.6 hPa16.1 kmNNW (340°)5.6 km/hClear
12:55 AM18 °C13.1 °C73 %1015.6 hPa16.1 kmCalmClear
1:15 AM17.9 °C13.3 °C74 %1015.2 hPa16.1 kmNorth (360°)5.6 km/hClear
1:35 AM18 °C13.4 °C74 %1015.6 hPa16.1 kmNNW (340°)7.4 km/hClear
1:55 AM18 °C13.4 °C74 %1015.9 hPa16.1 kmNW (320°)11.1 km/hClear
2:15 AM18.6 °C12.5 °C68 %1015.9 hPa16.1 kmNNW (340°)13 km/hClear
2:35 AM19 °C10.7 °C59 %1015.9 hPa16.1 kmNNW (340°)16.7 km/h27.8 km/hClear
2:55 AM18.6 °C11.2 °C62 %1015.9 hPa16.1 kmNNW (340°)16.7 km/hClear
3:15 AM18.3 °C11.8 °C66 %1015.9 hPa16.1 kmNorth (350°)11.1 km/hScattered Clouds
3:35 AM18.1 °C12.2 °C68 %1016.6 hPa16.1 kmNNW (340°)14.8 km/hScattered Clouds
3:55 AM18.1 °C7.3 °C49 %1016.6 hPa16.1 kmNorth (360°)16.7 km/hScattered Clouds
4:15 AM17.8 °C5.2 °C43 %1016.9 hPa16.1 kmNorth (360°)22.2 km/h31.5 km/hScattered Clouds
4:35 AM17.5 °C4.3 °C42 %1016.9 hPa16.1 kmNorth (360°)14.8 km/hMostly Cloudy
4:55 AM17 °C4.9 °C45 %1016.9 hPa16.1 kmNorth (360°)16.7 km/hScattered Clouds
5:15 AM17 °C5.5 °C47 %1017.3 hPa16.1 kmNorth (10°)14.8 km/h25.9 km/hMostly Cloudy
5:35 AM16.7 °C6 °C49 %1017.6 hPa16.1 kmNorth (10°)14.8 km/hMostly Cloudy
5:55 AM16.6 °C6.3 °C51 %1017.9 hPa16.1 kmNorth (360°)16.7 km/h29.6 km/hOvercast
6:15 AM16.4 °C6 °C50 %1018.3 hPa16.1 kmNorth (360°)13 km/h31.5 km/hMostly Cloudy
6:35 AM16.1 °C5.4 °C49 %1018.6 hPa16.1 kmNorth (350°)18.5 km/hOvercast
6:55 AM15.7 °C4.1 °C46 %1018.6 hPa16.1 kmNorth (350°)18.5 km/h27.8 km/hOvercast
7:35 AM15 °C3.6 °C47 %1019.3 hPa16.1 kmNorth (360°)18.5 km/hOvercast
7:55 AM14.5 °C2.8 °C45 %1020 hPa16.1 kmNNW (340°)16.7 km/hMostly Cloudy
8:15 AM14.2 °C3.1 °C47 %1020.7 hPa16.1 kmNorth (360°)18.5 km/h27.8 km/hMostly Cloudy
8:35 AM14.1 °C3.1 °C48 %1020.7 hPa16.1 kmNNW (340°)18.5 km/h31.5 km/hMostly Cloudy
8:55 AM14.5 °C3 °C46 %1020.7 hPa16.1 kmNorth (350°)18.5 km/hMostly Cloudy
9:15 AM14.4 °C2.9 °C46 %1021 hPa16.1 kmNorth (350°)18.5 km/h33.3 km/hOvercast
9:35 AM14.5 °C2.8 °C45 %1021 hPa16.1 kmNorth (350°)20.4 km/h31.5 km/hOvercast
10:15 AM14.5 °C2.7 °C45 %1022 hPa16.1 kmNorth (360°)18.5 km/h25.9 km/hOvercast
10:35 AM14.6 °C2.7 °C45 %1022 hPa16.1 kmNorth (10°)22.2 km/hOvercast
11:15 AM15.5 °C2.5 °C42 %1021.7 hPa16.1 kmNorth (360°)14.8 km/hOvercast
11:35 AM16.4 °C2.4 °C39 %1021.7 hPa16.1 kmNNW (330°)14.8 km/hOvercast
11:55 AM17 °C2.6 °C38 %1021.3 hPa16.1 kmNorth (10°)14.8 km/hMostly Cloudy
12:15 PM17.1 °C2.1 °C37 %1021 hPa16.1 kmNE (40°)11.1 km/hScattered Clouds
12:35 PM18.2 °C1.6 °C33 %1020.7 hPa16.1 kmNNE (20°)9.3 km/hClear
12:55 PM18.2 °C2 °C34 %1020.3 hPa16.1 kmNorth (360°)11.1 km/hClear
1:15 PM18.7 °C1.5 °C32 %1020 hPa16.1 kmNorth (10°)5.6 km/hClear
1:35 PM19 °C1.9 °C32 %1019.3 hPa16.1 kmNNE (30°)9.3 km/hClear
1:55 PM19.3 °C1.3 °C30 %1019 hPa16.1 kmNE (40°)5.6 km/hClear
2:15 PM20 °C1.3 °C29 %1018.3 hPa16.1 kmNorth (360°)11.1 km/hClear
2:35 PM19.9 °C1.2 °C29 %1017.9 hPa16.1 kmNorth (350°)14.8 km/hClear
2:55 PM20.4 °C0.7 °C27 %1017.6 hPa16.1 kmNorth (350°)9.3 km/hClear
3:15 PM20.7 °C0.7 °C26 %1017.3 hPa16.1 kmNE (40°)14.8 km/hClear
3:35 PM21.1 °C0.5 °C25 %1016.9 hPa16.1 kmNE (50°)13 km/hClear
3:55 PM21.1 °C0.2 °C25 %1016.9 hPa16.1 kmNW (320°)13 km/hClear
4:15 PM20.9 °C-0.2 °C24 %1016.6 hPa16.1 kmNNE (20°)7.4 km/hClear
4:35 PM21 °C0.1 °C25 %1016.9 hPa16.1 kmNorth (10°)9.3 km/hClear
4:55 PM21 °C-0.1 °C25 %1016.9 hPa16.1 kmNNE (30°)9.3 km/hClear
5:15 PM21 °C0.1 °C25 %1016.6 hPa16.1 kmNNE (20°)11.1 km/hClear
5:35 PM20.6 °C-0.3 °C25 %1016.6 hPa16.1 kmNE (40°)13 km/hClear
5:55 PM20.3 °C-0.7 °C25 %1016.6 hPa16.1 kmNE (40°)11.1 km/hClear
6:15 PM19.6 °C0 °C27 %1016.6 hPa16.1 kmNNE (20°)11.1 km/hClear
6:35 PM18.6 °C0.6 °C30 %1016.9 hPa16.1 kmNE (50°)7.4 km/hClear
7:15 PM16.7 °C1.2 °C35 %1017.3 hPa16.1 kmENE (60°)5.6 km/hClear
7:35 PM16.2 °C1 °C36 %1017.6 hPa16.1 kmENE (60°)7.4 km/hClear
7:55 PM15.9 °C1.5 °C38 %1017.6 hPa16.1 kmNE (50°)9.3 km/hClear
8:15 PM14.9 °C2.1 °C42 %1017.9 hPa16.1 kmEast (80°)9.3 km/hClear
8:35 PM14.2 °C4.6 °C53 %1018.3 hPa16.1 kmEast (100°)7.4 km/hClear
8:55 PM14 °C5.5 °C57 %1018.3 hPa16.1 kmEast (90°)5.6 km/hClear
9:15 PM14 °C6.1 °C59 %1018.6 hPa16.1 kmNE (50°)5.6 km/hClear
9:35 PM13.5 °C6.2 °C61 %1019 hPa16.1 kmCalmClear
9:55 PM13.5 °C6.5 °C63 %1019 hPa16.1 kmNE (40°)5.6 km/hClear
10:15 PM13.1 °C6.5 °C64 %1019 hPa16.1 kmCalmClear
10:35 PM13 °C6.6 °C65 %1019.6 hPa16.1 kmCalmClear
10:55 PM12 °C6.1 °C67 %1019.6 hPa16.1 kmCalmClear
11:15 PM11.5 °C6 °C69 %1019.6 hPa16.1 kmCalmClear
11:35 PM11.3 °C6.2 °C71 %1019.6 hPa16.1 kmCalmClear
Hourly data recorded from KBKS, located 0 kilometers away from Armstrong, Texas







STORIES FROM OUR PARTNERS